Weather History for KXNA - February, 2014

Change the Weather History Date:

Wednesday, February 19, 2014

  Actual Average Record
Temperature  
Mean Temperature 52 °F -  
Max Temperature 66 °F - - ()
Min Temperature 37 °F - - ()
Degree Days  
Heating Degree Days 14    
Growing Degree Days 2 (Base 50)    
Moisture  
Dew Point 40 °F    
Average Humidity 59    
Maximum Humidity 87    
Minimum Humidity 23    
Precipitation  
Precipitation 0.00 in - - ()
Sea Level Pressure  
Sea Level Pressure 29.83 in    
Wind  
Wind Speed 12 mph (SE)    
Max Wind Speed 23 mph    
Max Gust Speed 31 mph    
Visibility 10 miles    
Events      
T = Trace of Precipitation, MM = Missing Value Source: NWS Daily Summary

Daily Weather History Graph

Daily Weather History Graph

Search for Another Location

Airport or City:

Trip Planner

Search our weather history database for the weather conditions in past years. The results will help you decide how hot, cold, wet, or windy it might be!

Date:

Astronomy

Feb. 19, 2014 Rise Set
Actual Time 7:00 AM CST 6:02 PM CST
Civil Twilight 6:34 AM CST 6:28 PM CST
Nautical Twilight 6:04 AM CST 6:58 PM CST
Astronomical Twilight 5:34 AM CST 7:28 PM CST
Moon 10:46 PM CST (2/19) 9:15 AM CST (2/19)
Length of Visible Light 11h 54m
Length of Day
11h 02m
Waning Gibbous, 79% of the Moon is Illuminated
Feb 19
Waning Gibbous
Feb 22
Last Quarter
Mar 1
New
Mar 8
First Quarter
Mar 16
Full

Hourly Weather History & Observations

Time (CST) Temp. Windchill Dew Point Humidity Pressure Visibility Wind Dir Wind Speed Gust Speed Precip Events Conditions
12:53 AM 51.1 °F - 33.1 °F 50% 29.94 in 10.0 mi North 15.0 mph - N/A   Clear
1:53 AM 48.0 °F - 30.0 °F 50% 29.96 in 10.0 mi NNE 12.7 mph - N/A   Clear
2:53 AM 46.9 °F - 28.9 °F 50% 29.96 in 10.0 mi NNE 9.2 mph - N/A   Clear
3:53 AM 46.0 °F 43.9 °F 30.0 °F 54% 29.96 in 10.0 mi ENE 4.6 mph - N/A   Clear
4:53 AM 42.1 °F 40.2 °F 28.9 °F 60% 29.99 in 10.0 mi SE 3.5 mph - N/A   Clear
5:53 AM 39.9 °F 36.7 °F 28.9 °F 65% 29.98 in 10.0 mi NE 4.6 mph - N/A   Clear
6:53 AM 37.9 °F - 28.9 °F 70% 30.00 in 10.0 mi Calm Calm - N/A   Clear
7:53 AM 41.0 °F 39.0 °F 28.9 °F 62% 29.99 in 10.0 mi NE 3.5 mph - N/A   Clear
8:53 AM 46.0 °F 41.9 °F 30.0 °F 54% 30.00 in 10.0 mi ESE 8.1 mph - N/A   Clear
9:53 AM 52.0 °F - 25.0 °F 35% 29.98 in 10.0 mi East 10.4 mph - N/A   Clear
10:53 AM 55.0 °F - 23.0 °F 29% 29.96 in 10.0 mi East 15.0 mph - N/A   Clear
11:53 AM 59.0 °F - 21.0 °F 23% 29.92 in 10.0 mi ESE 13.8 mph - N/A   Clear
12:53 PM 63.0 °F - 25.0 °F 24% 29.85 in 10.0 mi ESE 13.8 mph - N/A   Clear
1:53 PM 66.9 °F - 45.0 °F 45% 29.81 in 10.0 mi SSE 15.0 mph - N/A   Clear
2:53 PM 66.0 °F - 48.9 °F 54% 29.78 in 10.0 mi South 20.7 mph - N/A   Clear
3:53 PM 64.9 °F - 50.0 °F 58% 29.77 in 10.0 mi South 21.9 mph 31.1 mph N/A   Scattered Clouds
4:46 PM 64.4 °F - 50.0 °F 59% 29.75 in 10.0 mi SSE 19.6 mph - N/A   Overcast
4:53 PM 63.0 °F - 50.0 °F 63% 29.74 in 10.0 mi SSE 19.6 mph 26.5 mph N/A   Overcast
5:13 PM 62.6 °F - 51.8 °F 68% 29.74 in 10.0 mi SSE 12.7 mph - N/A   Overcast
5:53 PM 61.0 °F - 48.9 °F 64% 29.72 in 10.0 mi SE 15.0 mph - N/A   Mostly Cloudy
6:26 PM 60.8 °F - 48.2 °F 63% 29.72 in 10.0 mi SSE 13.8 mph - N/A   Overcast
6:53 PM 59.0 °F - 48.0 °F 67% 29.71 in 10.0 mi SSE 11.5 mph - N/A   Overcast
7:53 PM 60.1 °F - 51.1 °F 72% 29.69 in 10.0 mi South 23.0 mph 26.5 mph N/A   Overcast
8:29 PM 59.0 °F - 51.8 °F 77% 29.69 in 10.0 mi South 21.9 mph 26.5 mph N/A   Overcast
8:53 PM 59.0 °F - 52.0 °F 78% 29.68 in 10.0 mi South 17.3 mph - N/A   Overcast
9:53 PM 59.0 °F - 52.0 °F 78% 29.67 in 10.0 mi South 18.4 mph - N/A   Mostly Cloudy
10:53 PM 59.0 °F - 53.1 °F 81% 29.64 in 10.0 mi SSE 15.0 mph - N/A   Mostly Cloudy
11:53 PM 57.9 °F - 54.0 °F 87% 29.60 in 10.0 mi South 15.0 mph - N/A   Scattered Clouds